Simultaneous Nadir Overpasses (SNOs) Predictions

Prediction of SNOs between METOP-B and TERRA Satellite Orbit:

Table of predicted SNOs for the next 14.0 days since TLE Epoch: 11/11/2014
Index Date (METOP-B) Time (METOP-B) Lat,Lon (METOP-B) SZA (METOP-B ) Date (TERRA) Time (TERRA) Lat,Lon (TERRA) SZA (TERRA ) Distance(km) Time Diff (sec)
1 11/13/2014 13:52:48 -81.26,-161.84 77.70 11/13/2014 13:53:20 -81.26,-161.76 77.68 1.43 32
2 11/13/2014 14:43:28 81.27, 5.84 102.36 11/13/2014 14:42:46 81.27, 5.95 102.35 1.92 42
3 11/16/2014 09:27:12 -81.27, -95.12 76.95 11/16/2014 09:27:27 -81.27, -95.10 76.94 0.50 15
4 11/16/2014 10:17:52 81.27, 72.52 103.10 11/16/2014 10:16:53 81.27, 72.59 103.08 1.06 59
5 11/19/2014 04:10:57 81.27, 163.83 103.69 11/19/2014 04:12:08 81.27, 163.68 103.70 2.44 71
6 11
